Home   Weather   Langkawi   Past weeks

Flag for Malaysia Past Weather in Langkawi, Malaysia — Yesterday and Last 2 Weeks

Now
79 °F

Passing clouds.


Feels Like: 82 °F
Forecast: 77 / 85 °F
Wind: 3 mph from Southeast

Location: Langkawi

Current Time: Jan 24, 2017 at 5:32:55 am

Latest Report: Jan 24, 2017 at 5:00 am


Visibility: N/A

Pressure: 29.86 "Hg

Humidity: 89%

Dew Point: 75 °F

Location of LangkawiLocation

Past Weather in Langkawi — Graph

°F

Langkawi Temperature Yesterday

Maximum temperature yesterday: 88 °F (at 1:00 pm)
Minimum temperature yesterday: 81 °F (at 1:00 am)
Average temperature yesterday: 83 °F

High & Low Weather Summary for the Past Weeks

 TemperatureHumidityPressure
High91 °F (Jan 22, 2:00 pm)100% (Jan 9, 4:00 am)29.95 "Hg (Jan 9, 4:00 am)
Low75 °F (Jan 10, 5:00 am)70% (Jan 10, 12:00 pm)29.68 "Hg (Jan 9, 5:00 am)
Average82 °F85%29.81 "Hg
* Reported Jan 9 4:00 am — Jan 24 4:00 am, Langkawi, Weather by CustomWeather, © 2017

Note: Actual official high and low records may vary slightly from our data, if they occured in-between our weather recording intervals... More about our weather records

Advertising

Langkawi Weather History for the Previous 24 Hours

Scroll right to see more
 ConditionsComfort  
Time TempWeatherWind HumidityBarometerVisibility
4:00 am
Tue, Jan 24
79 °FPartly cloudy.No wind89%29.89 "HgN/A
3:00 am81 °FPartly cloudy.2 mph84%29.89 "HgN/A
2:00 am81 °FPartly cloudy.5 mph84%29.92 "HgN/A
1:00 am81 °FPassing clouds.5 mph84%29.92 "HgN/A
12:00 am81 °FPartly cloudy.5 mph84%29.95 "HgN/A
11:00 pm
Mon, Jan 23
81 °FPartly cloudy.5 mph84%29.95 "HgN/A
10:00 pm81 °FPartly cloudy.5 mph84%29.92 "HgN/A
9:00 pm82 °FPartly cloudy.5 mph79%29.92 "HgN/A
8:00 pm82 °FPartly cloudy.5 mph84%29.86 "HgN/A
7:00 pm82 °FBroken clouds.3 mph84%29.86 "HgN/A
6:00 pm82 °FBroken clouds.8 mph84%29.83 "HgN/A
5:00 pm86 °FBroken clouds.6 mph79%29.80 "HgN/A
4:00 pm82 °FBroken clouds.7 mph84%29.83 "HgN/A
3:00 pm88 °FBroken clouds.7 mph75%29.83 "HgN/A
2:00 pm88 °FBroken clouds.12 mph75%29.86 "HgN/A
1:00 pm88 °FBroken clouds.12 mph75%29.89 "HgN/A
12:00 pm86 °FBroken clouds.12 mph79%29.92 "HgN/A
11:00 am84 °FPartly sunny.9 mph84%29.92 "HgN/A
10:00 am82 °FBroken clouds.6 mph84%29.92 "HgN/A
9:00 am81 °FBroken clouds.6 mph89%29.92 "HgN/A
8:00 am81 °FBroken clouds.5 mph84%29.89 "HgN/A
7:00 am81 °FPartly cloudy.3 mph84%29.86 "HgN/A
6:00 am81 °FPassing clouds.3 mph84%29.86 "HgN/A
5:00 am81 °FPassing clouds.6 mph84%29.83 "HgN/A
Weather by CustomWeather, © 2017

See weather overviewHow to use our weather pages